QFA513 YBBN-YSSY

Flight info

Callsign QFA513
Flight time N/A
Altitude 38000
Route BN H91 IGDAM H652 TESAT
Aircraft B38M/M-SDE1FGHILORVWXY/HB1

Departure

Time N/A
Airport Brisbane International Airport (YBBN)

Arrival

Time 2026-04-25 01:40
Airport Sydney Kingsford Smith International Airport (YSSY)
Time Latitude Longitude Altitude Speed Heading
2026-04-25 01:11 -32.11357 151.08626 38482 ft 397 kts 197°
2026-04-25 01:12 -32.13944 151.07461 38481 ft 398 kts 197°
2026-04-25 01:12 -32.16537 151.06296 37968 ft 402 kts 197°
2026-04-25 01:12 -32.19177 151.05112 37205 ft 408 kts 197°
2026-04-25 01:12 -32.21845 151.03912 36421 ft 412 kts 197°
2026-04-25 01:13 -32.24540 151.02697 35619 ft 417 kts 197°
2026-04-25 01:13 -32.27242 151.01476 35219 ft 411 kts 197°
2026-04-25 01:13 -32.29861 151.00287 35108 ft 397 kts 197°
2026-04-25 01:13 -32.32412 150.99131 34744 ft 390 kts 197°
2026-04-25 01:14 -32.34939 150.97993 34240 ft 387 kts 196°
2026-04-25 01:14 -32.37453 150.96863 33708 ft 385 kts 196°
2026-04-25 01:14 -32.39947 150.95740 33170 ft 383 kts 196°
2026-04-25 01:14 -32.42430 150.94615 32643 ft 381 kts 196°
2026-04-25 01:15 -32.44892 150.93496 32126 ft 378 kts 196°
2026-04-25 01:15 -32.47340 150.92390 31585 ft 375 kts 194°
2026-04-25 01:15 -32.49849 150.91696 31026 ft 366 kts 182°
2026-04-25 01:15 -32.52359 150.91708 30531 ft 358 kts 169°
2026-04-25 01:16 -32.54814 150.92091 30034 ft 354 kts 169°
2026-04-25 01:16 -32.56421 150.92369 29652 ft 353 kts 168°
2026-04-25 01:16 -32.58839 150.92814 29092 ft 351 kts 168°
2026-04-25 01:16 -32.62024 150.93405 28395 ft 349 kts 168°
2026-04-25 01:17 -32.64419 150.93832 27859 ft 347 kts 168°
2026-04-25 01:17 -32.66028 150.94113 27507 ft 346 kts 169°
2026-04-25 01:17 -32.69159 150.94660 26999 ft 346 kts 169°
2026-04-25 01:17 -32.71614 150.95099 26671 ft 367 kts 169°
2026-04-25 01:18 -32.74207 150.95566 26337 ft 386 kts 169°
2026-04-25 01:18 -32.76904 150.96048 25982 ft 394 kts 169°
2026-04-25 01:18 -32.78732 150.96368 25745 ft 390 kts 169°
2026-04-25 01:18 -32.81405 150.96835 25400 ft 388 kts 169°
2026-04-25 01:19 -32.84077 150.97307 25046 ft 389 kts 169°
2026-04-25 01:19 -32.86708 150.97778 24702 ft 386 kts 169°
2026-04-25 01:19 -32.89361 150.98253 24356 ft 385 kts 169°
2026-04-25 01:19 -32.92008 150.98727 24010 ft 384 kts 169°
2026-04-25 01:20 -32.94643 150.99196 23663 ft 383 kts 169°
2026-04-25 01:20 -32.97273 150.99664 23320 ft 381 kts 169°
2026-04-25 01:20 -32.99897 151.00132 22971 ft 380 kts 169°
2026-04-25 01:20 -33.02508 151.00601 22618 ft 378 kts 169°
2026-04-25 01:21 -33.05100 151.01064 22269 ft 377 kts 169°
2026-04-25 01:21 -33.07695 151.01525 21918 ft 376 kts 169°
2026-04-25 01:21 -33.10274 151.01986 21570 ft 375 kts 169°
2026-04-25 01:21 -33.12848 151.02448 21219 ft 373 kts 169°
2026-04-25 01:22 -33.15407 151.02907 20872 ft 372 kts 169°
2026-04-25 01:22 -33.17968 151.03366 20527 ft 371 kts 169°
2026-04-25 01:22 -33.20513 151.03821 20174 ft 369 kts 169°
2026-04-25 01:22 -33.23052 151.04277 19829 ft 368 kts 169°
2026-04-25 01:23 -33.25577 151.04736 19480 ft 367 kts 169°
2026-04-25 01:23 -33.28092 151.05217 19138 ft 365 kts 169°
2026-04-25 01:23 -33.30598 151.05710 18792 ft 364 kts 169°
2026-04-25 01:23 -33.33086 151.06197 18446 ft 362 kts 169°
2026-04-25 01:24 -33.35574 151.06677 18088 ft 362 kts 169°
2026-04-25 01:24 -33.38058 151.07149 17733 ft 360 kts 169°
2026-04-25 01:24 -33.40522 151.07616 17378 ft 357 kts 169°
2026-04-25 01:24 -33.42974 151.08086 17000 ft 357 kts 169°
2026-04-25 01:25 -33.45417 151.08555 16636 ft 354 kts 169°
2026-04-25 01:25 -33.47842 151.09023 16296 ft 353 kts 169°
2026-04-25 01:25 -33.50264 151.09490 15946 ft 352 kts 169°
2026-04-25 01:25 -33.52678 151.09955 15599 ft 350 kts 169°
2026-04-25 01:26 -33.55077 151.10417 15251 ft 348 kts 169°
2026-04-25 01:26 -33.57466 151.10877 14906 ft 347 kts 169°
2026-04-25 01:26 -33.59843 151.11334 14553 ft 345 kts 169°
2026-04-25 01:26 -33.62207 151.11790 14206 ft 344 kts 169°
2026-04-25 01:27 -33.64561 151.12251 13824 ft 342 kts 169°
2026-04-25 01:27 -33.66882 151.12713 13420 ft 334 kts 169°
2026-04-25 01:27 -33.69155 151.13165 13024 ft 327 kts 169°
2026-04-25 01:28 -33.73558 151.14028 12272 ft 315 kts 169°
2026-04-25 01:28 -33.75705 151.14441 11902 ft 310 kts 169°
2026-04-25 01:28 -33.77785 151.14842 11536 ft 304 kts 169°
2026-04-25 01:28 -33.79884 151.15245 11172 ft 299 kts 171°
2026-04-25 01:29 -33.81948 151.15196 10848 ft 296 kts 189°
2026-04-25 01:29 -33.83947 151.14704 10501 ft 292 kts 191°
2026-04-25 01:29 -33.85884 151.14156 10163 ft 288 kts 192°
2026-04-25 01:29 -33.87814 151.13577 9821 ft 284 kts 192°
2026-04-25 01:30 -33.89718 151.13009 9484 ft 281 kts 192°
2026-04-25 01:30 -33.91608 151.12459 9149 ft 278 kts 192°
2026-04-25 01:30 -33.93481 151.11924 8816 ft 275 kts 192°
2026-04-25 01:30 -33.95327 151.11396 8501 ft 272 kts 192°
2026-04-25 01:31 -33.97161 151.10868 8175 ft 269 kts 192°
2026-04-25 01:31 -33.98989 151.10340 7861 ft 272 kts 192°
2026-04-25 01:31 -34.00824 151.09808 7540 ft 270 kts 192°
2026-04-25 01:31 -34.02640 151.09283 7231 ft 267 kts 193°
2026-04-25 01:32 -34.04433 151.08764 6921 ft 265 kts 193°
2026-04-25 01:32 -34.06224 151.08247 6606 ft 264 kts 193°
2026-04-25 01:32 -34.08036 151.07915 6315 ft 263 kts 179°
2026-04-25 01:32 -34.09840 151.08200 6051 ft 261 kts 168°
2026-04-25 01:33 -34.11617 151.08638 5684 ft 261 kts 167°
2026-04-25 01:33 -34.13402 151.09109 5295 ft 263 kts 167°
2026-04-25 01:33 -34.15178 151.09585 4975 ft 261 kts 167°
2026-04-25 01:33 -34.16857 151.10346 4599 ft 259 kts 141°
2026-04-25 01:34 -34.17817 151.12053 4495 ft 241 kts 104°
2026-04-25 01:34 -34.17960 151.13979 4502 ft 221 kts 86°
2026-04-25 01:34 -34.17779 151.15760 4415 ft 207 kts 79°
2026-04-25 01:34 -34.17486 151.17419 4273 ft 197 kts 75°
2026-04-25 01:35 -34.17158 151.18989 4117 ft 189 kts 74°
2026-04-25 01:35 -34.16712 151.20487 3938 ft 193 kts 58°
2026-04-25 01:35 -34.15818 151.21661 3849 ft 189 kts 34°
2026-04-25 01:35 -34.14591 151.22214 3770 ft 191 kts
2026-04-25 01:36 -34.13248 151.22155 3639 ft 196 kts 351°
2026-04-25 01:36 -34.11918 151.21819 3382 ft 199 kts 349°
2026-04-25 01:36 -34.10542 151.21486 2991 ft 203 kts 351°
2026-04-25 01:36 -34.09149 151.21155 2601 ft 206 kts 350°
2026-04-25 01:37 -34.07740 151.20814 2245 ft 203 kts 350°
2026-04-25 01:37 -34.06397 151.20531 1924 ft 190 kts 351°
2026-04-25 01:37 -34.05141 151.20276 1690 ft 178 kts 350°
2026-04-25 01:37 -34.03930 151.20006 1455 ft 175 kts 348°
2026-04-25 01:38 -34.02763 151.19706 1293 ft 170 kts 347°
2026-04-25 01:38 -34.01600 151.19395 997 ft 173 kts 347°
2026-04-25 01:38 -34.00428 151.19088 766 ft 170 kts 347°
2026-04-25 01:38 -33.99325 151.18806 656 ft 155 kts 347°
2026-04-25 01:39 -33.98277 151.18541 405 ft 153 kts 347°
2026-04-25 01:39 -33.97247 151.18270 197 ft 151 kts 348°
2026-04-25 01:39 -33.96229 151.18014 45 ft 147 kts 347°
2026-04-25 01:39 -33.95353 151.17785 29 ft 98 kts 348°
2026-04-25 01:40 -33.94865 151.17661 28 ft 62 kts 351°
2026-04-25 01:40 -33.94535 151.17674 28 ft 38 kts 17°
2026-04-25 01:40 -33.94347 151.17734 28 ft 27 kts 356°
2026-04-25 01:40 -33.94168 151.17684 28 ft 26 kts 346°
2026-04-25 01:41 -33.93992 151.17634 28 ft 26 kts 346°
2026-04-25 01:41 -33.93821 151.17587 28 ft 25 kts 347°
2026-04-25 01:41 -33.93654 151.17543 28 ft 24 kts 348°
2026-04-25 01:41 -33.93489 151.17504 29 ft 24 kts 349°
2026-04-25 01:42 -33.93328 151.17488 29 ft 23 kts 351°
2026-04-25 01:42 -33.93174 151.17449 29 ft 23 kts 349°
2026-04-25 01:42 -33.93072 151.17488 30 ft 16 kts 57°
2026-04-25 01:42 -33.93010 151.17592 29 ft 16 kts 86°
2026-04-25 01:43 -33.93040 151.17719 29 ft 15 kts 113°
2026-04-25 01:43 -33.93055 151.17759 28 ft 4 kts 122°
2026-04-25 01:43 -33.93081 151.17768 29 ft 4 kts 183°
2026-04-25 01:43 -33.93115 151.17760 29 ft 6 kts 192°
2026-04-25 01:44 -33.93128 151.17756 29 ft 0 kts 191°